User: anonymous   Login
Location: Arborea
(39.7744°N, 8.5819°E)
Time: 21:24:40
(UTC+00:00)
Language:

DOVE 4 - Orbit

View from above orbital plane
View from above orbital plane
View from above satellite
View from above satellite

Ground track
Ground track

The orbit data is extracted from the following two-line orbital elements,

1 39430U 13066Q   24148.54745750  .00002280  00000-0  38550-3 0  9997
2 39430  97.7346  24.1779 0139246 319.0229  40.0575 14.64097689560026
Epoch (UTC): 27 May 2024 13:08:20
Eccentricity: 0.0139246
inclination: 97.7346°
perigee height: 581 km
apogee height: 778 km
right ascension of ascending node: 24.1779°
argument of perigee: 319.0229°
revolutions per day: 14.64097689
mean anomaly at epoch: 40.0575°
orbit number at epoch: 56002

The dashed part of the orbit path shows where the satellite is in the earth's shadow,  

DLR